Lid_Strength_Index
-1 -1 -1 -1 -2 -2 -2 -2 -2 -1 -2 -2 -2 -1 -1 -1 -1 -1 -2 1 -0 -1 -2 -2 -1 -1 -0 -0 0 0 -0 -0 -0 0 1 1 1 1 1 1 1 1 1
-1 -1 -2 -2 -2 -2 -2 -2 -1 -1 -2 -1 -1 -1 -1 -1 -1 -0 0 0 1 -0 -1 -1 -1 -1 -0 -0 0 0 1 0 0 0 0 1 1 1 2 2 2 2 2
-1 -1 -1 -2 -2 -2 -2 -2 -2 -2 -1 -0 -0 -1 0 0 0 1 1 3 2 2 1 0 1 0 1 1 1 2 2 2 1 1 1 1 1 1 2 2 2 3 2
-1 -1 -1 -2 -2 -2 -2 -2 -2 -1 -1 -0 -0 0 2 2 3 2 3 2 2 3 3 2 2 1 1 1 1 1 1 1 1 2 1 2 2 1 1 1 2 2 2
0 -1 -1 -1 -2 -2 -2 -1 -2 -1 -0 0 1 2 3 3 3 3 4 3 3 3 3 4 3 2 2 1 1 1 2 2 2 2 2 2 2 2 2 2 2 2 2
1 1 1 0 -0 -0 -1 -1 -1 -1 -1 0 1 5 6 6 4 5 5 4 2 2 2 1 2 3 3 3 2 2 2 2 2 2 2 2 3 3 3 3 3 3 3
3 3 2 2 1 1 1 -0 -0 0 0 -0 1 5 7 7 7 7 6 6 5 4 3 4 3 3 4 4 3 3 2 2 3 3 3 3 4 4 4 4 4 4 4
3 3 3 3 3 2 2 1 1 2 1 -0 2 2 6 6 7 7 7 8 8 7 6 5 4 5 5 5 5 5 4 4 3 3 4 4 5 5 5 4 5 5 5
4 5 4 5 4 3 3 3 2 2 3 1 -0 2 5 6 8 8 9 9 9 8 8 7 6 6 5 6 6 7 7 6 5 5 5 5 5 5 5 5 5 5 5
4 4 4 4 4 3 3 2 2 2 2 3 1 1 1 1 5 11 10 10 8 9 9 9 8 7 6 6 8 9 8 7 6 6 6 6 6 6 6 6 6 6 6
3 3 3 3 3 3 2 2 3 3 3 3 3 3 2 2 2 5 10 12 10 9 9 9 9 8 8 7 7 9 9 9 8 8 8 7 7 7 7 7 7 6 6
1 1 2 2 2 2 2 2 2 3 2 3 4 3 3 4 4 4 5 8 9 10 9 9 9 8 8 8 9 10 10 10 9 9 9 9 8 8 8 7 7 7 7
-0 -1 -1 -1 -1 -0 0 0 1 2 2 3 3 3 3 2 2 3 4 6 8 9 9 8 8 8 8 8 9 10 10 10 10 10 10 10 9 9 9 8 8 8 7
-1 -1 -1 -1 -1 -0 -0 0 1 1 2 2 2 2 2 2 2 2 3 5 8 8 8 8 8 8 8 8 9 10 10 11 11 11 10 10 10 10 10 9 9 9 8
-1 -1 -1 -1 -0 -0 0 0 0 1 1 2 2 2 2 2 2 3 2 3 4 8 9 8 9 8 8 8 9 9 10 11 12 12 11 11 11 11 10 10 10 9 9
-1 -1 -1 -0 -0 -0 -0 0 1 1 2 1 2 2 3 3 4 4 4 3 2 4 6 7 8 8 8 9 9 9 10 11 12 12 12 12 12 12 11 11 11 10 10
-1 -0 0 0 0 0 -0 0 0 1 2 2 2 3 4 4 5 4 4 3 3 3 6 7 7 8 9 9 10 10 11 11 12 12 12 13 13 12 12 12 12 11 12
-1 -1 -1 -0 -0 -0 -0 0 1 2 2 3 3 4 5 5 4 4 4 4 4 3 5 8 8 9 10 10 10 11 11 11 11 12 12 13 12 12 12 12 12 12 12
-0 -0 -0 -0 -0 -0 1 1 1 2 3 4 4 4 4 4 4 3 4 4 4 5 4 6 8 8 10 10 11 11 11 11 12 12 12 13 13 12 12 12 13 12 13
0 -0 -0 -0 -0 0 1 1 2 4 4 5 5 4 4 4 4 4 4 4 5 6 6 6 8 8 10 10 10 12 12 11 13 12 12 13 13 13 13 13 13 13 13
0 0 0 1 1 1 2 2 3 3 4 6 5 5 5 6 9 7 5 5 5 8 10 9 9 10 10 12 12 11 12 12 13 12 12 12 11 11 12 12 12 13 13
1 1 1 1 2 2 7 7 4 4 6 6 6 5 7 8 9 10 10 10 8 7 9 10 10 11 10 10 11 11 12 13 15 12 12 13 11 12 12 12 13 13 13
2 3 3 3 4 4 8 7 7 6 7 6 5 6 6 8 8 8 11 11 11 12 12 9 9 9 9 9 9 11 11 11 12 12 12 13 12 13 13 13 13 13 12
8 7 7 7 7 6 8 7 7 7 7 7 7 7 8 8 9 9 9 10 10 11 11 11 9 8 8 8 8 10 10 11 11 12 11 15 13 14 13 13 14 13 13
9 8 8 8 8 8 8 8 7 7 9 9 9 8 8 9 11 12 10 11 11 12 12 12 12 12 11 11 9 10 12 13 15 14 13 14 14 15 13 13 13 14 13
9 7 9 9 9 9 9 9 8 7 9 9 9 10 12 10 12 12 11 11 13 14 13 12 12 12 12 12 12 10 11 13 13 15 13 14 15 14 15 13 12 12 12